Zurück zum Katalog

FENGYUN 1C DEB

AktivPO
NORAD 31419·DEBRIS·🇨🇳 China

Gestartet May 10, 1999 von Taiyuan Satellite Launch Center

Loading…

Nächste Überflüge (nächste 24 Stunden)

TLE

AktuellSource: Space-Track

Epoche: Sep 14, 2026, 08:44 UTC

1 31419U 99025BTF 26257.36395799  .00006735  00000-0  97379-3 0  9995
2 31419  98.7833  98.4203 0038522  54.1824 306.2953 14.76035038690873

Verfolge FENGYUN 1C DEB in Echtzeit mit AllMySat

Download on the App Store